TimeCST,TemperatureF,Dew PointF,Humidity,Sea Level PressureIn,VisibilityMPH,Wind Direction,Wind SpeedMPH,Gust SpeedMPH,PrecipitationIn,Events,Conditions,WindDirDegrees,DateUTC
12:55 AM,38.1,25.9,61,30.43,10.0,SSE,5.8,-,N/A,,Mostly Cloudy,160,2012-11-14 06:55:00
1:55 AM,37.8,27.7,67,30.43,10.0,SSE,4.6,-,N/A,,Overcast,150,2012-11-14 07:55:00
2:55 AM,36.9,27.1,68,30.43,10.0,SSE,5.8,-,N/A,,Overcast,160,2012-11-14 08:55:00
3:55 AM,36.1,28.0,72,30.43,10.0,SSE,4.6,-,N/A,,Partly Cloudy,150,2012-11-14 09:55:00
4:55 AM,34.7,28.0,77,30.43,10.0,SSE,3.5,-,N/A,,Overcast,160,2012-11-14 10:55:00
5:55 AM,33.8,27.7,78,30.44,10.0,Calm,Calm,-,N/A,,Mostly Cloudy,0,2012-11-14 11:55:00
6:55 AM,32.7,28.2,83,30.45,10.0,SSE,3.5,-,N/A,,Mostly Cloudy,160,2012-11-14 12:55:00
7:55 AM,35.1,28.0,76,30.46,10.0,SSE,4.6,-,N/A,,Clear,150,2012-11-14 13:55:00
8:55 AM,41.2,26.8,57,30.47,10.0,SSE,5.8,-,N/A,,Clear,150,2012-11-14 14:55:00
9:55 AM,45.9,26.6,47,30.45,9.0,SSE,3.5,-,N/A,,Clear,150,2012-11-14 15:55:00
10:55 AM,49.5,23.5,36,30.44,8.0,Variable,3.5,-,N/A,,Clear,0,2012-11-14 16:55:00
11:55 AM,51.1,19.8,29,30.42,6.0,SSE,4.6,-,N/A,,Haze,150,2012-11-14 17:55:00
12:55 PM,52.7,19.9,28,30.39,10.0,Calm,Calm,-,N/A,,Clear,0,2012-11-14 18:55:00
1:55 PM,52.7,16.2,24,30.36,10.0,Calm,Calm,-,N/A,,Clear,0,2012-11-14 19:55:00
2:55 PM,52.7,18.1,26,30.35,10.0,ENE,4.6,-,N/A,,Clear,60,2012-11-14 20:55:00
3:55 PM,52.5,17.8,25,30.34,10.0,ESE,5.8,-,N/A,,Clear,110,2012-11-14 21:55:00
4:55 PM,50.4,17.1,27,30.33,10.0,Calm,Calm,-,N/A,,Clear,0,2012-11-14 22:55:00
5:55 PM,46.2,19.2,34,30.34,10.0,ESE,5.8,-,N/A,,Clear,110,2012-11-14 23:55:00
6:55 PM,41.5,21.9,46,30.34,10.0,SE,5.8,-,N/A,,Clear,140,2012-11-15 00:55:00
7:55 PM,39.0,22.8,52,30.34,10.0,SSE,6.9,-,N/A,,Clear,150,2012-11-15 01:55:00
8:55 PM,38.1,22.3,53,30.34,10.0,SE,6.9,-,N/A,,Clear,140,2012-11-15 02:55:00
9:55 PM,35.6,23.4,61,30.33,10.0,ESE,5.8,-,N/A,,Clear,110,2012-11-15 03:55:00
10:55 PM,33.1,24.8,72,30.33,10.0,SE,5.8,-,N/A,,Clear,140,2012-11-15 04:55:00
11:55 PM,31.8,24.4,74,30.33,10.0,SE,6.9,-,N/A,,Clear,140,2012-11-15 05:55:00